星链-3099 (STARLINK-3099 )

导读

STARLINK-3099是美国星链计划中的一颗低轨互联网通信卫星,于2021年11月13日发射升空,隶属SpaceX公司开发的Starlink星座网络。作为星链批量部署的卫星之一,它主要为全球范围提供卫星互联网接入服务,支撑通信、导航等多场景应用,是星链全球星座组网进程中的组成单元。

Basic Information
目录编号:
49446
目录名称:
STARLINK-3099
国际标识:
2021-104AQ
轨道中心:
EARTH
卫星名称:
星链-3099
卫星全名:
星链-3099 (STARLINK-3099 )
卫星状态:
在轨 (已飞行1756 天)
发射日期:
2021-11-13 UTC
国别 :
美国 (US)
星等 :
--
Orbit Information
数据来源 国际轨道数据
星历时间: 2026-09-02T08:09:11+0800
2天前
查看轨道信息
半长轴: 6848.876km
偏心率: 0.000127
轨道倾角: 53.161°
近地点辐角 73.489°
升交点赤经 132.143°
平近点角 286.625°
近地点: 469.869km
远地点: 471.609km
周期: 94.013分钟
每日圈数: 15.317005
Detailed Information
固有亮度:
5
最大亮度:
2.5
卫星平台:
Starlink v1.5
覆盖范围:
全球
运营商:
太空探索技术公司
运营商所在国:
美国
制造商(研发单位):
太空探索技术公司
制造商所在国:
美国
使用方式:
暂无
Satellite Introduction
星链(Starlink)计划是由太空探索技术公司(SpaceX)提出的一个巨型低轨卫星互联网星座项目,计划在2019年至2024年间在太空搭建由约1.2万颗卫星组成的“星链”网络,其中1584颗将部署在地球上空550千米处的近地轨道,并从2020年开始工作。该卫星仍在工作。
2D Orbit Map
3D Orbit Map
Orbit Altitude Analysis Chart
Orbit Inclination Analysis Chart
Orbit Comprehensive Analysis Chart
View Comprehensive Chart
Conjunction Data List
Event ID Objects TCA Miss Dist (km) Collision Risk Probability Collision Risk Index (CRI) Action
CDM_260830-164704-944605-701423
OBJECT L (57014)
2026-08-30T
16:47:09+0000
0.261 km
中距离
5.999771E-4 高风险 0.91
CDM_260903-080404-944606-971821
2026-09-03T
08:04:37+0000
2.950 km
极远距离
1.351916E-6 低风险 0.38